Tracking 31027 objects as of 19-Jul-2025
HD Live streaming from Space Station
objects crossing your sky now

SL-16 DEB

Track SL-16 DEB now!
10-day predictions


NORAD ID: 22615
Int'l Code: 1993-016Z
Perigee: 826.7 km
Apogee: 1,018.6 km
Inclination: 71.0 °
Period: 103.3 minutes
Semi major axis: 7293 km
RCS: 0.015 m2 (small)
Launch date: March 26, 1993
Source: Commonwealth of Independent States (former USSR) (CIS)
Launch site: TYURATAM MISSILE AND SPACE COMPLEX (TTMTR)

Note: This is SATELLITE DEBRIS
Your satellite tracking list
KORSAT 7
Track 1 satellite(s)




NASA's NSSDC Master Catalog

Two Line Element Set (TLE):
1 22615U 93016Z   25197.99840042  .00000491  00000-0  37969-3 0  9996
2 22615  71.0026  30.3490 0131505 253.3774 262.2513 13.93749743634856
Source of the keplerian elements: AFSPC